Year,Month,Day,Hour,Minute,Value (Times are PST for temperature in C)
2015,07,08,00,00,16.60
2015,07,08,00,01,16.60
2015,07,08,00,02,16.50
2015,07,08,00,03,16.50
2015,07,08,00,04,16.50
2015,07,08,00,05,16.40
2015,07,08,00,06,16.40
2015,07,08,00,07,16.40
2015,07,08,00,08,16.40
2015,07,08,00,09,16.40
2015,07,08,00,10,16.40
2015,07,08,00,11,16.30
2015,07,08,00,12,16.30
2015,07,08,00,13,16.30
2015,07,08,00,14,16.30
2015,07,08,00,15,16.30
2015,07,08,00,16,16.20
2015,07,08,00,17,16.20
2015,07,08,00,18,16.20
2015,07,08,00,19,16.20
2015,07,08,00,20,16.20
2015,07,08,00,21,16.10
2015,07,08,00,22,16.10
2015,07,08,00,23,16.10
2015,07,08,00,24,16.10
2015,07,08,00,25,16.10
2015,07,08,00,26,16.10
2015,07,08,00,27,16.10
2015,07,08,00,28,16.10
2015,07,08,00,29,16.10
2015,07,08,00,30,16.10
2015,07,08,00,31,16.10
2015,07,08,00,32,16.10
2015,07,08,00,33,16.10
2015,07,08,00,34,16.10
2015,07,08,00,35,16.10
2015,07,08,00,36,16.10
2015,07,08,00,37,16.10
2015,07,08,00,38,16.10
2015,07,08,00,39,16.10
2015,07,08,00,40,16.10
2015,07,08,00,41,16.10
2015,07,08,00,42,16.10
2015,07,08,00,43,16.00
2015,07,08,00,44,16.00
2015,07,08,00,45,16.00
2015,07,08,00,46,15.90
2015,07,08,00,47,15.90
2015,07,08,00,48,15.90
2015,07,08,00,49,15.90
2015,07,08,00,50,15.90
2015,07,08,00,51,15.80
2015,07,08,00,52,15.80
2015,07,08,00,53,15.80
2015,07,08,00,54,15.80
2015,07,08,00,55,15.80
2015,07,08,00,56,15.80
2015,07,08,00,57,15.80
2015,07,08,00,58,15.80
2015,07,08,00,59,15.80
2015,07,08,01,00,15.80
2015,07,08,01,01,15.80
2015,07,08,01,02,15.70
2015,07,08,01,03,15.70
2015,07,08,01,04,15.70
2015,07,08,01,05,15.70
2015,07,08,01,06,15.70
2015,07,08,01,07,15.70
2015,07,08,01,08,15.70
2015,07,08,01,09,15.70
2015,07,08,01,10,15.70
2015,07,08,01,11,15.70
2015,07,08,01,12,15.70
2015,07,08,01,13,15.70
2015,07,08,01,14,15.70
2015,07,08,01,15,15.60
2015,07,08,01,16,15.60
2015,07,08,01,17,15.60
2015,07,08,01,18,15.60
2015,07,08,01,19,15.60
2015,07,08,01,20,15.60
2015,07,08,01,21,15.60
2015,07,08,01,22,15.50
2015,07,08,01,23,15.50
2015,07,08,01,24,15.50
2015,07,08,01,25,15.50
2015,07,08,01,26,15.50
2015,07,08,01,27,15.50
2015,07,08,01,28,15.50
2015,07,08,01,29,15.40
2015,07,08,01,30,15.40
2015,07,08,01,31,15.40
2015,07,08,01,32,15.40
2015,07,08,01,33,15.40
2015,07,08,01,34,15.40
2015,07,08,01,35,15.40
2015,07,08,01,36,15.40
2015,07,08,01,37,15.40
2015,07,08,01,38,15.40
2015,07,08,01,39,15.40
2015,07,08,01,40,15.40
2015,07,08,01,41,15.40
2015,07,08,01,42,15.40
2015,07,08,01,43,15.40
2015,07,08,01,44,15.40
2015,07,08,01,45,15.30
2015,07,08,01,46,15.30
2015,07,08,01,47,15.30
2015,07,08,01,48,15.30
2015,07,08,01,49,15.30
2015,07,08,01,50,15.30
2015,07,08,01,51,15.30
2015,07,08,01,52,15.20
2015,07,08,01,53,15.20
2015,07,08,01,54,15.20
2015,07,08,01,55,15.20
2015,07,08,01,56,15.20
2015,07,08,01,57,15.20
2015,07,08,01,58,15.20
2015,07,08,01,59,15.20
2015,07,08,02,00,15.20
2015,07,08,02,01,15.20
2015,07,08,02,02,15.20
2015,07,08,02,03,15.20
2015,07,08,02,04,15.20
2015,07,08,02,05,15.20
2015,07,08,02,06,15.20
2015,07,08,02,07,15.20
2015,07,08,02,08,15.20
2015,07,08,02,09,15.10
2015,07,08,02,10,15.10
2015,07,08,02,11,15.10
2015,07,08,02,12,15.10
2015,07,08,02,13,15.10
2015,07,08,02,14,15.10
2015,07,08,02,15,15.10
2015,07,08,02,16,15.10
2015,07,08,02,17,15.10
2015,07,08,02,18,15.10
2015,07,08,02,19,15.10
2015,07,08,02,20,15.10
2015,07,08,02,21,15.10
2015,07,08,02,22,15.10
2015,07,08,02,23,15.10
2015,07,08,02,24,15.00
2015,07,08,02,25,15.00
2015,07,08,02,26,15.10
2015,07,08,02,27,15.10
2015,07,08,02,28,15.10
2015,07,08,02,29,15.10
2015,07,08,02,30,15.10
2015,07,08,02,31,15.10
2015,07,08,02,32,15.10
2015,07,08,02,33,15.10
2015,07,08,02,34,15.10
2015,07,08,02,35,15.10
2015,07,08,02,36,15.10
2015,07,08,02,37,15.10
2015,07,08,02,38,15.10
2015,07,08,02,39,15.10
2015,07,08,02,40,15.10
2015,07,08,02,41,15.10
2015,07,08,02,42,15.10
2015,07,08,02,43,15.10
2015,07,08,02,44,15.10
2015,07,08,02,45,15.10
2015,07,08,02,46,15.10
2015,07,08,02,47,15.10
2015,07,08,02,48,15.00
2015,07,08,02,49,15.00
2015,07,08,02,50,15.00
2015,07,08,02,51,14.90
2015,07,08,02,52,14.90
2015,07,08,02,53,14.90
2015,07,08,02,54,14.90
2015,07,08,02,55,14.90
2015,07,08,02,56,14.90
2015,07,08,02,57,14.90
2015,07,08,02,58,14.90
2015,07,08,02,59,14.90
2015,07,08,03,00,14.90
2015,07,08,03,01,14.90
2015,07,08,03,02,14.90
2015,07,08,03,03,14.90
2015,07,08,03,04,14.90
2015,07,08,03,05,14.90
2015,07,08,03,06,14.90
2015,07,08,03,07,14.90
2015,07,08,03,08,14.80
2015,07,08,03,09,14.80
2015,07,08,03,10,14.80
2015,07,08,03,11,14.80
2015,07,08,03,12,14.80
2015,07,08,03,13,14.80
2015,07,08,03,14,14.80
2015,07,08,03,15,14.80
2015,07,08,03,16,14.80
2015,07,08,03,17,14.80
2015,07,08,03,18,14.70
2015,07,08,03,19,14.70
2015,07,08,03,20,14.70
2015,07,08,03,21,14.70
2015,07,08,03,22,14.70
2015,07,08,03,23,14.70
2015,07,08,03,24,14.70
2015,07,08,03,25,14.70
2015,07,08,03,26,14.70
2015,07,08,03,27,14.70
2015,07,08,03,28,14.70
2015,07,08,03,29,14.70
2015,07,08,03,30,14.70
2015,07,08,03,31,14.60
2015,07,08,03,32,14.60
2015,07,08,03,33,14.60
2015,07,08,03,34,14.60
2015,07,08,03,35,14.60
2015,07,08,03,36,14.60
2015,07,08,03,37,14.60
2015,07,08,03,38,14.60
2015,07,08,03,39,14.60
2015,07,08,03,40,14.60
2015,07,08,03,41,14.50
2015,07,08,03,42,14.50
2015,07,08,03,43,14.50
2015,07,08,03,44,14.50
2015,07,08,03,45,14.40
2015,07,08,03,46,14.40
2015,07,08,03,47,14.40
2015,07,08,03,48,14.40
2015,07,08,03,49,14.40
2015,07,08,03,50,14.40
2015,07,08,03,51,14.40
2015,07,08,03,52,14.40
2015,07,08,03,53,14.40
2015,07,08,03,54,14.40
2015,07,08,03,55,14.40
2015,07,08,03,56,14.50
2015,07,08,03,57,14.50
2015,07,08,03,58,14.50
2015,07,08,03,59,14.50
2015,07,08,04,00,14.50
2015,07,08,04,01,14.50
2015,07,08,04,02,14.60
2015,07,08,04,03,14.60
2015,07,08,04,04,14.60
2015,07,08,04,05,14.60
2015,07,08,04,06,14.60
2015,07,08,04,07,14.60
2015,07,08,04,08,14.50
2015,07,08,04,09,14.50
2015,07,08,04,10,14.50
2015,07,08,04,11,14.50
2015,07,08,04,12,14.50
2015,07,08,04,13,14.50
2015,07,08,04,14,14.50
2015,07,08,04,15,14.40
2015,07,08,04,16,14.40
2015,07,08,04,17,14.40
2015,07,08,04,18,14.40
2015,07,08,04,19,14.40
2015,07,08,04,20,14.40
2015,07,08,04,21,14.40
2015,07,08,04,22,14.40
2015,07,08,04,23,14.40
2015,07,08,04,24,14.40
2015,07,08,04,25,14.40
2015,07,08,04,26,14.40
2015,07,08,04,27,14.40
2015,07,08,04,28,14.40
2015,07,08,04,29,14.40
2015,07,08,04,30,14.40
2015,07,08,04,31,14.40
2015,07,08,04,32,14.40
2015,07,08,04,33,14.40
2015,07,08,04,34,14.30
2015,07,08,04,35,14.30
2015,07,08,04,36,14.30
2015,07,08,04,37,14.30
2015,07,08,04,38,14.30
2015,07,08,04,39,14.30
2015,07,08,04,40,14.30
2015,07,08,04,41,14.30
2015,07,08,04,42,14.30
2015,07,08,04,43,14.30
2015,07,08,04,44,14.40
2015,07,08,04,45,14.40
2015,07,08,04,46,14.40
2015,07,08,04,47,14.40
2015,07,08,04,48,14.40
2015,07,08,04,49,14.50
2015,07,08,04,50,14.50
2015,07,08,04,51,14.50
2015,07,08,04,52,14.50
2015,07,08,04,53,14.50
2015,07,08,04,54,14.50
2015,07,08,04,55,14.50
2015,07,08,04,56,14.50
2015,07,08,04,57,14.50
2015,07,08,04,58,14.50
2015,07,08,04,59,14.50
2015,07,08,05,00,14.40
2015,07,08,05,01,14.40
2015,07,08,05,02,14.40
2015,07,08,05,03,14.40
2015,07,08,05,04,14.50
2015,07,08,05,05,14.50
2015,07,08,05,06,14.50
2015,07,08,05,07,14.50
2015,07,08,05,08,14.50
2015,07,08,05,09,14.60
2015,07,08,05,10,14.60
2015,07,08,05,11,14.60
2015,07,08,05,12,14.60
2015,07,08,05,13,14.60
2015,07,08,05,14,14.50
2015,07,08,05,15,14.50
2015,07,08,05,16,14.50
2015,07,08,05,17,14.40
2015,07,08,05,18,14.40
2015,07,08,05,19,14.40
2015,07,08,05,20,14.40
2015,07,08,05,21,14.40
2015,07,08,05,22,14.30
2015,07,08,05,23,14.30
2015,07,08,05,24,14.30
2015,07,08,05,25,14.30
2015,07,08,05,26,14.30
2015,07,08,05,27,14.30
2015,07,08,05,28,14.30
2015,07,08,05,29,14.30
2015,07,08,05,30,14.30
2015,07,08,05,31,14.30
2015,07,08,05,32,14.30
2015,07,08,05,33,14.30
2015,07,08,05,34,14.30
2015,07,08,05,35,14.30
2015,07,08,05,36,14.20
2015,07,08,05,37,14.20
2015,07,08,05,38,14.20
2015,07,08,05,39,14.20
2015,07,08,05,40,14.20
2015,07,08,05,41,14.20
2015,07,08,05,42,14.20
2015,07,08,05,43,14.20
2015,07,08,05,44,14.20
2015,07,08,05,45,14.20
2015,07,08,05,46,14.30
2015,07,08,05,47,14.30
2015,07,08,05,48,14.40
2015,07,08,05,49,14.40
2015,07,08,05,50,14.50
2015,07,08,05,51,14.60
2015,07,08,05,52,14.60
2015,07,08,05,53,14.70
2015,07,08,05,54,14.70
2015,07,08,05,55,14.70
2015,07,08,05,56,14.70
2015,07,08,05,57,14.70
2015,07,08,05,58,14.70
2015,07,08,05,59,14.70
2015,07,08,06,00,14.70
2015,07,08,06,01,14.70
2015,07,08,06,02,14.70
2015,07,08,06,03,14.70
2015,07,08,06,04,14.70
2015,07,08,06,05,14.70
2015,07,08,06,06,14.70
2015,07,08,06,07,14.70
2015,07,08,06,08,14.70
2015,07,08,06,09,14.70
2015,07,08,06,10,14.70
2015,07,08,06,11,14.70
2015,07,08,06,12,14.80
2015,07,08,06,13,14.80
2015,07,08,06,14,14.80
2015,07,08,06,15,14.80
2015,07,08,06,16,14.80
2015,07,08,06,17,14.80
2015,07,08,06,18,14.80
2015,07,08,06,19,14.90
2015,07,08,06,20,14.90
2015,07,08,06,21,14.90
2015,07,08,06,22,14.90
2015,07,08,06,23,14.90
2015,07,08,06,24,14.90
2015,07,08,06,25,14.90
2015,07,08,06,26,14.90
2015,07,08,06,27,14.90
2015,07,08,06,28,14.90
2015,07,08,06,29,14.90
2015,07,08,06,30,15.00
2015,07,08,06,31,15.00
2015,07,08,06,32,15.00
2015,07,08,06,33,15.00
2015,07,08,06,34,15.00
2015,07,08,06,35,15.00
2015,07,08,06,36,15.00
2015,07,08,06,37,15.00
2015,07,08,06,38,15.10
2015,07,08,06,39,15.10
2015,07,08,06,40,15.10
2015,07,08,06,41,15.10
2015,07,08,06,42,15.10
2015,07,08,06,43,15.10
2015,07,08,06,44,15.20
2015,07,08,06,45,15.20
2015,07,08,06,46,15.20
2015,07,08,06,47,15.30
2015,07,08,06,48,15.30
2015,07,08,06,49,15.30
2015,07,08,06,50,15.40
2015,07,08,06,51,15.40
2015,07,08,06,52,15.50
2015,07,08,06,53,15.50
2015,07,08,06,54,15.60
2015,07,08,06,55,15.60
2015,07,08,06,56,15.70
2015,07,08,06,57,15.80
2015,07,08,06,58,15.80
2015,07,08,06,59,15.90
2015,07,08,07,00,16.00
2015,07,08,07,01,16.00
2015,07,08,07,02,16.10
2015,07,08,07,03,16.20
2015,07,08,07,04,16.20
2015,07,08,07,05,16.30
2015,07,08,07,06,16.40
2015,07,08,07,07,16.40
2015,07,08,07,08,16.50
2015,07,08,07,09,16.50
2015,07,08,07,10,16.60
2015,07,08,07,11,16.70
2015,07,08,07,12,16.70
2015,07,08,07,13,16.80
2015,07,08,07,14,16.80
2015,07,08,07,15,16.90
2015,07,08,07,16,16.90
2015,07,08,07,17,17.00
2015,07,08,07,18,17.10
2015,07,08,07,19,17.20
2015,07,08,07,20,17.20
2015,07,08,07,21,17.30
2015,07,08,07,22,17.30
2015,07,08,07,23,17.40
2015,07,08,07,24,17.40
2015,07,08,07,25,17.50
2015,07,08,07,26,17.50
2015,07,08,07,27,17.60
2015,07,08,07,28,17.60
2015,07,08,07,29,17.60
2015,07,08,07,30,17.60
2015,07,08,07,31,17.60
2015,07,08,07,32,17.60
2015,07,08,07,33,17.70
2015,07,08,07,34,17.70
2015,07,08,07,35,17.70
2015,07,08,07,36,17.70
2015,07,08,07,37,17.70
2015,07,08,07,38,17.80
2015,07,08,07,39,17.80
2015,07,08,07,40,17.80
2015,07,08,07,41,17.80
2015,07,08,07,42,17.80
2015,07,08,07,43,17.80
2015,07,08,07,44,17.80
2015,07,08,07,45,17.80
2015,07,08,07,46,17.80
2015,07,08,07,47,17.80
2015,07,08,07,48,17.90
2015,07,08,07,49,17.90
2015,07,08,07,50,17.90
2015,07,08,07,51,17.90
2015,07,08,07,52,17.90
2015,07,08,07,53,18.00
2015,07,08,07,54,18.00
2015,07,08,07,55,18.00
2015,07,08,07,56,18.10
2015,07,08,07,57,18.10
2015,07,08,07,58,18.10
2015,07,08,07,59,18.10
2015,07,08,08,00,18.10
2015,07,08,08,01,18.20
2015,07,08,08,02,18.20
2015,07,08,08,03,18.20
2015,07,08,08,04,18.30
2015,07,08,08,05,18.30
2015,07,08,08,06,18.30
2015,07,08,08,07,18.40
2015,07,08,08,08,18.40
2015,07,08,08,09,18.40
2015,07,08,08,10,18.50
2015,07,08,08,11,18.50
2015,07,08,08,12,18.60
2015,07,08,08,13,18.60
2015,07,08,08,14,18.60
2015,07,08,08,15,18.70
2015,07,08,08,16,18.70
2015,07,08,08,17,18.70
2015,07,08,08,18,18.80
2015,07,08,08,19,18.80
2015,07,08,08,20,18.80
2015,07,08,08,21,18.80
2015,07,08,08,22,18.80
2015,07,08,08,23,18.90
2015,07,08,08,24,18.90
2015,07,08,08,25,18.90
2015,07,08,08,26,19.00
2015,07,08,08,27,19.00
2015,07,08,08,28,19.10
2015,07,08,08,29,19.20
2015,07,08,08,30,19.20
2015,07,08,08,31,19.20
2015,07,08,08,32,19.20
2015,07,08,08,33,19.20
2015,07,08,08,34,19.30
2015,07,08,08,35,19.30
2015,07,08,08,36,19.30
2015,07,08,08,37,19.40
2015,07,08,08,38,19.40
2015,07,08,08,39,19.50
2015,07,08,08,40,19.50
2015,07,08,08,41,19.60
2015,07,08,08,42,19.60
2015,07,08,08,43,19.70
2015,07,08,08,44,19.70
2015,07,08,08,45,19.80
2015,07,08,08,46,19.80
2015,07,08,08,47,19.80
2015,07,08,08,48,19.80
2015,07,08,08,49,19.80
2015,07,08,08,50,19.80
2015,07,08,08,51,19.80
2015,07,08,08,52,19.80
2015,07,08,08,53,19.80
2015,07,08,08,54,19.80
2015,07,08,08,55,19.80
2015,07,08,08,56,19.80
2015,07,08,08,57,19.70
2015,07,08,08,58,19.70
2015,07,08,08,59,19.70
2015,07,08,09,00,19.70
2015,07,08,09,01,19.70
2015,07,08,09,02,19.70
2015,07,08,09,03,19.70
2015,07,08,09,04,19.60
2015,07,08,09,05,19.60
2015,07,08,09,06,19.60
2015,07,08,09,07,19.60
2015,07,08,09,08,19.60
2015,07,08,09,09,19.60
2015,07,08,09,10,19.60
2015,07,08,09,11,19.60
2015,07,08,09,12,19.70
2015,07,08,09,13,19.70
2015,07,08,09,14,19.70
2015,07,08,09,15,19.70
2015,07,08,09,16,19.70
2015,07,08,09,17,19.70
2015,07,08,09,18,19.70
2015,07,08,09,19,19.70
2015,07,08,09,20,19.70
2015,07,08,09,21,19.70
2015,07,08,09,22,19.70
2015,07,08,09,23,19.70
2015,07,08,09,24,19.70
2015,07,08,09,25,19.70
2015,07,08,09,26,19.70
2015,07,08,09,27,19.70
2015,07,08,09,28,19.70
2015,07,08,09,29,19.70
2015,07,08,09,30,19.70
2015,07,08,09,31,19.70
2015,07,08,09,32,19.70
2015,07,08,09,33,19.70
2015,07,08,09,34,19.70
2015,07,08,09,35,19.70
2015,07,08,09,36,19.70
2015,07,08,09,37,19.70
2015,07,08,09,38,19.70
2015,07,08,09,39,19.70
2015,07,08,09,40,19.80
2015,07,08,09,41,19.80
2015,07,08,09,42,19.80
2015,07,08,09,43,19.80
2015,07,08,09,44,19.80
2015,07,08,09,45,19.80
2015,07,08,09,46,19.80
2015,07,08,09,47,19.80
2015,07,08,09,48,19.80
2015,07,08,09,49,19.80
2015,07,08,09,50,19.80
2015,07,08,09,51,19.80
2015,07,08,09,52,19.80
2015,07,08,09,53,19.80
2015,07,08,09,54,19.80
2015,07,08,09,55,19.90
2015,07,08,09,56,19.90
2015,07,08,09,57,20.00
2015,07,08,09,58,20.00
2015,07,08,09,59,20.10
2015,07,08,10,00,20.10
2015,07,08,10,01,20.20
2015,07,08,10,02,20.30
2015,07,08,10,03,20.40
2015,07,08,10,04,20.50
2015,07,08,10,05,20.60
2015,07,08,10,06,20.60
2015,07,08,10,07,20.70
2015,07,08,10,08,20.70
2015,07,08,10,09,20.80
2015,07,08,10,10,20.80
2015,07,08,10,11,20.80
2015,07,08,10,12,20.70
2015,07,08,10,13,20.70
2015,07,08,10,14,20.60
2015,07,08,10,15,20.60
2015,07,08,10,16,20.50
2015,07,08,10,17,20.50
2015,07,08,10,18,20.50
2015,07,08,10,19,20.50
2015,07,08,10,20,20.60
2015,07,08,10,21,20.60
2015,07,08,10,22,20.60
2015,07,08,10,23,20.60
2015,07,08,10,24,20.70
2015,07,08,10,25,20.70
2015,07,08,10,26,20.70
2015,07,08,10,27,20.70
2015,07,08,10,28,20.70
2015,07,08,10,29,20.70
2015,07,08,10,30,20.70
2015,07,08,10,31,20.70
2015,07,08,10,32,20.70
2015,07,08,10,33,20.80
2015,07,08,10,34,20.80
2015,07,08,10,35,20.80
2015,07,08,10,36,20.90
2015,07,08,10,37,20.90
2015,07,08,10,38,20.90
2015,07,08,10,39,21.00
2015,07,08,10,40,21.00
2015,07,08,10,41,20.90
2015,07,08,10,42,20.90
2015,07,08,10,43,20.90
2015,07,08,10,44,20.90
2015,07,08,10,45,21.00
2015,07,08,10,46,21.00
2015,07,08,10,47,21.10
2015,07,08,10,48,21.10
2015,07,08,10,49,21.10
2015,07,08,10,50,21.10
2015,07,08,10,51,21.20
2015,07,08,10,52,21.20
2015,07,08,10,53,21.10
2015,07,08,10,54,21.00
2015,07,08,10,55,21.00
2015,07,08,10,56,20.90
2015,07,08,10,57,20.90
2015,07,08,10,58,20.90
2015,07,08,10,59,21.00
2015,07,08,11,00,21.00
2015,07,08,11,01,21.10
2015,07,08,11,02,21.20
2015,07,08,11,03,21.30
2015,07,08,11,04,21.40
2015,07,08,11,05,21.50
2015,07,08,11,06,21.60
2015,07,08,11,07,21.60
2015,07,08,11,08,21.70
2015,07,08,11,09,21.70
2015,07,08,11,10,21.70
2015,07,08,11,11,21.80
2015,07,08,11,12,21.80
2015,07,08,11,13,21.80
2015,07,08,11,14,21.80
2015,07,08,11,15,21.90
2015,07,08,11,16,21.90
2015,07,08,11,17,21.90
2015,07,08,11,18,21.90
2015,07,08,11,19,21.90
2015,07,08,11,20,21.90
2015,07,08,11,21,21.90
2015,07,08,11,22,21.90
2015,07,08,11,23,21.90
2015,07,08,11,24,21.90
2015,07,08,11,25,21.90
2015,07,08,11,26,22.00
2015,07,08,11,27,22.10
2015,07,08,11,28,22.20
2015,07,08,11,29,22.20
2015,07,08,11,30,22.20
2015,07,08,11,31,22.30
2015,07,08,11,32,22.20
2015,07,08,11,33,22.20
2015,07,08,11,34,22.10
2015,07,08,11,35,22.10
2015,07,08,11,36,22.10
2015,07,08,11,37,22.10
2015,07,08,11,38,22.00
2015,07,08,11,39,22.00
2015,07,08,11,40,22.10
2015,07,08,11,41,22.10
2015,07,08,11,42,22.10
2015,07,08,11,43,22.20
2015,07,08,11,44,22.20
2015,07,08,11,45,22.20
2015,07,08,11,46,22.30
2015,07,08,11,47,22.30
2015,07,08,11,48,22.40
2015,07,08,11,49,22.40
2015,07,08,11,50,22.40
2015,07,08,11,51,22.40
2015,07,08,11,52,22.40
2015,07,08,11,53,22.40
2015,07,08,11,54,22.40
2015,07,08,11,55,22.40
2015,07,08,11,56,22.40
2015,07,08,11,57,22.40
2015,07,08,11,58,22.40
2015,07,08,11,59,22.40
2015,07,08,12,00,22.40
2015,07,08,12,01,22.40
2015,07,08,12,02,22.50
2015,07,08,12,03,22.50
2015,07,08,12,04,22.50
2015,07,08,12,05,22.60
2015,07,08,12,06,22.60
2015,07,08,12,07,22.60
2015,07,08,12,08,22.60
2015,07,08,12,09,22.60
2015,07,08,12,10,22.60
2015,07,08,12,11,22.60
2015,07,08,12,12,22.60
2015,07,08,12,13,22.60
2015,07,08,12,14,22.60
2015,07,08,12,15,22.70
2015,07,08,12,16,22.70
2015,07,08,12,17,22.80
2015,07,08,12,18,22.80
2015,07,08,12,19,22.80
2015,07,08,12,20,22.80
2015,07,08,12,21,22.80
2015,07,08,12,22,22.80
2015,07,08,12,23,22.80
2015,07,08,12,24,22.90
2015,07,08,12,25,22.90
2015,07,08,12,26,22.90
2015,07,08,12,27,22.90
2015,07,08,12,28,23.00
2015,07,08,12,29,23.10
2015,07,08,12,30,23.10
2015,07,08,12,31,23.10
2015,07,08,12,32,23.20
2015,07,08,12,33,23.20
2015,07,08,12,34,23.20
2015,07,08,12,35,23.30
2015,07,08,12,36,23.30
2015,07,08,12,37,23.30
2015,07,08,12,38,23.30
2015,07,08,12,39,23.30
2015,07,08,12,40,23.40
2015,07,08,12,41,23.40
2015,07,08,12,42,23.50
2015,07,08,12,43,23.50
2015,07,08,12,44,23.60
2015,07,08,12,45,23.60
2015,07,08,12,46,23.70
2015,07,08,12,47,23.80
2015,07,08,12,48,23.80
2015,07,08,12,49,23.80
2015,07,08,12,50,23.90
2015,07,08,12,51,23.80
2015,07,08,12,52,23.80
2015,07,08,12,53,23.80
2015,07,08,12,54,23.80
2015,07,08,12,55,23.90
2015,07,08,12,56,24.00
2015,07,08,12,57,24.10
2015,07,08,12,58,24.10
2015,07,08,12,59,24.20
2015,07,08,13,00,24.20
2015,07,08,13,01,24.30
2015,07,08,13,02,24.30
2015,07,08,13,03,24.30
2015,07,08,13,04,24.40
2015,07,08,13,05,24.40
2015,07,08,13,06,24.40
2015,07,08,13,07,24.40
2015,07,08,13,08,24.40
2015,07,08,13,09,24.30
2015,07,08,13,10,24.30
2015,07,08,13,11,24.20
2015,07,08,13,12,24.20
2015,07,08,13,13,24.20
2015,07,08,13,14,24.20
2015,07,08,13,15,24.20
2015,07,08,13,16,24.20
2015,07,08,13,17,24.30
2015,07,08,13,18,24.40
2015,07,08,13,19,24.50
2015,07,08,13,20,24.60
2015,07,08,13,21,24.70
2015,07,08,13,22,24.70
2015,07,08,13,23,24.80
2015,07,08,13,24,24.80
2015,07,08,13,25,24.80
2015,07,08,13,26,24.90
2015,07,08,13,27,24.90
2015,07,08,13,28,24.90
2015,07,08,13,29,24.90
2015,07,08,13,30,24.90
2015,07,08,13,31,24.90
2015,07,08,13,32,24.90
2015,07,08,13,33,24.90
2015,07,08,13,34,24.90
2015,07,08,13,35,24.90
2015,07,08,13,36,24.80
2015,07,08,13,37,24.80
2015,07,08,13,38,24.70
2015,07,08,13,39,24.70
2015,07,08,13,40,24.70
2015,07,08,13,41,24.70
2015,07,08,13,42,24.80
2015,07,08,13,43,24.80
2015,07,08,13,44,24.90
2015,07,08,13,45,24.90
2015,07,08,13,46,24.90
2015,07,08,13,47,24.90
2015,07,08,13,48,24.90
2015,07,08,13,49,24.90
2015,07,08,13,50,24.90
2015,07,08,13,51,25.00
2015,07,08,13,52,25.00
2015,07,08,13,53,25.10
2015,07,08,13,54,25.10
2015,07,08,13,55,25.20
2015,07,08,13,56,25.20
2015,07,08,13,57,25.30
2015,07,08,13,58,25.40
2015,07,08,13,59,25.50
2015,07,08,14,00,25.60
2015,07,08,14,01,25.70
2015,07,08,14,02,25.80
2015,07,08,14,03,25.80
2015,07,08,14,04,25.80
2015,07,08,14,05,25.80
2015,07,08,14,06,25.80
2015,07,08,14,07,25.70
2015,07,08,14,08,25.70
2015,07,08,14,09,25.70
2015,07,08,14,10,25.70
2015,07,08,14,11,25.60
2015,07,08,14,12,25.70
2015,07,08,14,13,25.70
2015,07,08,14,14,25.60
2015,07,08,14,15,25.60
2015,07,08,14,16,25.60
2015,07,08,14,17,25.60
2015,07,08,14,18,25.70
2015,07,08,14,19,25.70
2015,07,08,14,20,25.70
2015,07,08,14,21,25.70
2015,07,08,14,22,25.70
2015,07,08,14,23,25.70
2015,07,08,14,24,25.70
2015,07,08,14,25,25.70
2015,07,08,14,26,25.70
2015,07,08,14,27,25.70
2015,07,08,14,28,25.80
2015,07,08,14,29,25.80
2015,07,08,14,30,25.80
2015,07,08,14,31,25.80
2015,07,08,14,32,25.80
2015,07,08,14,33,25.70
2015,07,08,14,34,25.60
2015,07,08,14,35,25.60
2015,07,08,14,36,25.50
2015,07,08,14,37,25.50
2015,07,08,14,38,25.50
2015,07,08,14,39,25.60
2015,07,08,14,40,25.70
2015,07,08,14,41,25.80
2015,07,08,14,42,25.90
2015,07,08,14,43,26.00
2015,07,08,14,44,26.10
2015,07,08,14,45,26.10
2015,07,08,14,46,26.10
2015,07,08,14,47,26.10
2015,07,08,14,48,26.20
2015,07,08,14,49,26.20
2015,07,08,14,50,26.10
2015,07,08,14,51,26.10
2015,07,08,14,52,26.00
2015,07,08,14,53,26.00
2015,07,08,14,54,25.90
2015,07,08,14,55,25.90
2015,07,08,14,56,25.90
2015,07,08,14,57,26.00
2015,07,08,14,58,26.00
2015,07,08,14,59,26.00
2015,07,08,15,00,26.10
2015,07,08,15,01,26.20
2015,07,08,15,02,26.30
2015,07,08,15,03,26.30
2015,07,08,15,04,26.40
2015,07,08,15,05,26.40
2015,07,08,15,06,26.40
2015,07,08,15,07,26.50
2015,07,08,15,08,26.60
2015,07,08,15,09,26.60
2015,07,08,15,10,26.50
2015,07,08,15,11,26.50
2015,07,08,15,12,26.40
2015,07,08,15,13,26.40
2015,07,08,15,14,26.30
2015,07,08,15,15,26.30
2015,07,08,15,16,26.20
2015,07,08,15,17,26.20
2015,07,08,15,18,26.20
2015,07,08,15,19,26.20
2015,07,08,15,20,26.30
2015,07,08,15,21,26.20
2015,07,08,15,22,26.20
2015,07,08,15,23,26.20
2015,07,08,15,24,26.30
2015,07,08,15,25,26.30
2015,07,08,15,26,26.30
2015,07,08,15,27,26.40
2015,07,08,15,28,26.40
2015,07,08,15,29,26.50
2015,07,08,15,30,26.70
2015,07,08,15,31,26.80
2015,07,08,15,32,26.90
2015,07,08,15,33,27.00
2015,07,08,15,34,27.10
2015,07,08,15,35,27.10
2015,07,08,15,36,27.10
2015,07,08,15,37,27.00
2015,07,08,15,38,26.90
2015,07,08,15,39,27.00
2015,07,08,15,40,27.10
2015,07,08,15,41,27.20
2015,07,08,15,42,27.30
2015,07,08,15,43,27.40
2015,07,08,15,44,27.50
2015,07,08,15,45,27.60
2015,07,08,15,46,27.60
2015,07,08,15,47,27.60
2015,07,08,15,48,27.50
2015,07,08,15,49,27.40
2015,07,08,15,50,27.30
2015,07,08,15,51,27.30
2015,07,08,15,52,27.20
2015,07,08,15,53,27.20
2015,07,08,15,54,27.10
2015,07,08,15,55,27.10
2015,07,08,15,56,27.10
2015,07,08,15,57,27.10
2015,07,08,15,58,27.10
2015,07,08,15,59,27.10
2015,07,08,16,00,27.10
2015,07,08,16,01,27.20
2015,07,08,16,02,27.20
2015,07,08,16,03,27.30
2015,07,08,16,04,27.40
2015,07,08,16,05,27.40
2015,07,08,16,06,27.40
2015,07,08,16,07,27.40
2015,07,08,16,08,27.40
2015,07,08,16,09,27.40
2015,07,08,16,10,27.40
2015,07,08,16,11,27.40
2015,07,08,16,12,27.30
2015,07,08,16,13,27.30
2015,07,08,16,14,27.30
2015,07,08,16,15,27.30
2015,07,08,16,16,27.30
2015,07,08,16,17,27.30
2015,07,08,16,18,27.30
2015,07,08,16,19,27.30
2015,07,08,16,20,27.30
2015,07,08,16,21,27.30
2015,07,08,16,22,27.30
2015,07,08,16,23,27.30
2015,07,08,16,24,27.20
2015,07,08,16,25,27.20
2015,07,08,16,26,27.20
2015,07,08,16,27,27.20
2015,07,08,16,28,27.20
2015,07,08,16,29,27.20
2015,07,08,16,30,27.10
2015,07,08,16,31,27.10
2015,07,08,16,32,27.10
2015,07,08,16,33,27.10
2015,07,08,16,34,27.10
2015,07,08,16,35,27.20
2015,07,08,16,36,27.20
2015,07,08,16,37,27.30
2015,07,08,16,38,27.30
2015,07,08,16,39,27.30
2015,07,08,16,40,27.40
2015,07,08,16,41,27.40
2015,07,08,16,42,27.40
2015,07,08,16,43,27.50
2015,07,08,16,44,27.60
2015,07,08,16,45,27.60
2015,07,08,16,46,27.70
2015,07,08,16,47,27.80
2015,07,08,16,48,27.80
2015,07,08,16,49,27.90
2015,07,08,16,50,27.90
2015,07,08,16,51,27.90
2015,07,08,16,52,27.90
2015,07,08,16,53,27.80
2015,07,08,16,54,27.80
2015,07,08,16,55,27.80
2015,07,08,16,56,27.80
2015,07,08,16,57,27.80
2015,07,08,16,58,27.80
2015,07,08,16,59,27.80
2015,07,08,17,00,27.80
2015,07,08,17,01,27.80
2015,07,08,17,02,27.90
2015,07,08,17,03,27.90
2015,07,08,17,04,27.90
2015,07,08,17,05,28.00
2015,07,08,17,06,28.00
2015,07,08,17,07,28.00
2015,07,08,17,08,28.00
2015,07,08,17,09,28.00
2015,07,08,17,10,28.00
2015,07,08,17,11,27.90
2015,07,08,17,12,27.90
2015,07,08,17,13,27.90
2015,07,08,17,14,27.90
2015,07,08,17,15,27.90
2015,07,08,17,16,27.90
2015,07,08,17,17,27.90
2015,07,08,17,18,27.90
2015,07,08,17,19,27.90